FLOCK 3P-81 (42043 NORAD) Tracking and Keplerian Element Data

This shows tracking and keplerian element data for the satellite.

Feedback or suggestion? Click here.




ElementValue
Catalog42043
NameFLOCK 3P-81
Epoch Orbit5470
Epoch Day46.14165466
Epoch Year2018
RAAN111.8234
Inclination97.468
Eccentricity0.0009762
Argument of Perigee72.0846
Mean Anonmoly288.1455
Mean Motion15.23939341
Decay Rate1.428E-05
L11 42043U 17008CZ 18046.14165466 .00001428 00000-0 61980-4 0 9994
L22 42043 97.4680 111.8234 0009762 72.0846 288.1455 15.23939341 54709

Live tracking and technical data element details for FLOCK 3P-81 (NORAD 42043). FLOCK 3P-81 can be tracked NOW for your location showing map with azimuth and elevation plus other details from your city location.

Track the satellite on the map from your city or location and see movement details for azimuth, elevation, latitude, longitude, range, height, and movement on the map or in text.







IsCatalogInMostPopularTable: catalog: 42043, numindb: 174
Update: records affected: 1



GetName: 42043 FLOCK 3P-81

Hit Count: updated at: Wed, 14 Nov 2018 15:02:59 GMT